KAR782 UWKD-UWSG

Flight info

Callsign KAR782
Flight time 0h 49m
Altitude 32000
Route SONUM1G SONUM T789 OGRER OGRER1H
Aircraft E190/M-SDE3GILORVW/S

Departure

Time 2026-04-26 12:48
Airport Kazan International Airport (UWKD)

Arrival

Time 2026-04-26 13:37
Airport Gagarin International Airport (UWSG)
Time Latitude Longitude Altitude Speed Heading
2026-04-26 12:06 55.60735 49.29546 420 ft 0 kts 35°
2026-04-26 12:09 55.60729 49.29538 420 ft 0 kts 33°
2026-04-26 12:09 55.60728 49.29538 420 ft 0 kts 32°
2026-04-26 12:40 55.60730 49.29539 420 ft 1 kts 33°
2026-04-26 12:40 55.60739 49.29551 420 ft 2 kts 33°
2026-04-26 12:40 55.60756 49.29569 420 ft 3 kts 23°
2026-04-26 12:40 55.60783 49.29556 420 ft 5 kts 314°
2026-04-26 12:41 55.60809 49.29493 420 ft 6 kts 304°
2026-04-26 12:41 55.60807 49.29419 420 ft 6 kts 217°
2026-04-26 12:41 55.60763 49.29364 420 ft 9 kts 214°
2026-04-26 12:41 55.60697 49.29287 420 ft 13 kts 213°
2026-04-26 12:42 55.60612 49.29184 420 ft 16 kts 221°
2026-04-26 12:42 55.60578 49.29007 420 ft 15 kts 274°
2026-04-26 12:42 55.60588 49.28810 420 ft 16 kts 273°
2026-04-26 12:42 55.60590 49.28743 420 ft 16 kts 274°
2026-04-26 12:43 55.60619 49.28555 420 ft 16 kts 303°
2026-04-26 12:43 55.60681 49.28392 420 ft 16 kts 303°
2026-04-26 12:43 55.60746 49.28227 420 ft 16 kts 305°
2026-04-26 12:43 55.60812 49.28057 420 ft 16 kts 303°
2026-04-26 12:44 55.60876 49.27891 420 ft 13 kts 303°
2026-04-26 12:44 55.60930 49.27749 420 ft 15 kts 305°
2026-04-26 12:44 55.60994 49.27587 420 ft 16 kts 304°
2026-04-26 12:44 55.61058 49.27421 420 ft 16 kts 303°
2026-04-26 12:45 55.61124 49.27247 420 ft 17 kts 304°
2026-04-26 12:45 55.61194 49.27073 420 ft 17 kts 304°
2026-04-26 12:45 55.61203 49.26907 420 ft 14 kts 213°
2026-04-26 12:45 55.61165 49.26862 420 ft 0 kts 214°
2026-04-26 12:46 55.61161 49.26856 420 ft 2 kts 215°
2026-04-26 12:46 55.61136 49.26826 420 ft 6 kts 214°
2026-04-26 12:46 55.61091 49.26771 420 ft 9 kts 213°
2026-04-26 12:47 55.61049 49.26788 420 ft 0 kts 124°
2026-04-26 12:47 55.60977 49.26971 420 ft 54 kts 124°
2026-04-26 12:47 55.60623 49.27882 420 ft 124 kts 124°
2026-04-26 12:48 55.60070 49.29376 659 ft 156 kts 125°
2026-04-26 12:48 55.59498 49.31085 1290 ft 169 kts 125°
2026-04-26 12:48 55.58905 49.33000 1889 ft 191 kts 123°
2026-04-26 12:48 55.58260 49.35195 2663 ft 211 kts 122°
2026-04-26 12:49 55.57605 49.37455 3845 ft 204 kts 134°
2026-04-26 12:49 55.56698 49.39160 5078 ft 191 kts 139°
2026-04-26 12:49 55.55674 49.40356 6061 ft 178 kts 176°
2026-04-26 12:49 55.54545 49.40038 6900 ft 164 kts 205°
2026-04-26 12:50 55.53610 49.38959 7720 ft 165 kts 218°
2026-04-26 12:50 55.52486 49.38097 8036 ft 198 kts 197°
2026-04-26 12:50 55.51023 49.37325 8081 ft 241 kts 200°
2026-04-26 12:50 55.49392 49.36280 8048 ft 258 kts 202°
2026-04-26 12:51 55.47702 49.35083 8017 ft 260 kts 204°
2026-04-26 12:51 55.46105 49.33619 8105 ft 273 kts 223°
2026-04-26 12:51 55.44701 49.31307 8965 ft 281 kts 217°
2026-04-26 12:51 55.43121 49.29430 10192 ft 276 kts 213°
2026-04-26 12:52 55.41500 49.27777 11378 ft 273 kts 211°
2026-04-26 12:52 55.39845 49.26221 12423 ft 275 kts 210°
2026-04-26 12:52 55.38143 49.24686 13373 ft 280 kts 210°
2026-04-26 12:52 55.36385 49.23135 14313 ft 285 kts 210°
2026-04-26 12:53 55.34631 49.21603 15243 ft 289 kts 210°
2026-04-26 12:53 55.32824 49.20034 16139 ft 293 kts 210°
2026-04-26 12:53 55.31001 49.18456 17008 ft 296 kts 210°
2026-04-26 12:53 55.29157 49.16863 17822 ft 300 kts 210°
2026-04-26 12:54 55.27269 49.15234 18593 ft 305 kts 211°
2026-04-26 12:54 55.25378 49.13605 19386 ft 308 kts 211°
2026-04-26 12:54 55.23431 49.11930 20187 ft 311 kts 211°
2026-04-26 12:54 55.21500 49.10270 20957 ft 314 kts 211°
2026-04-26 12:55 55.19550 49.08596 21722 ft 316 kts 211°
2026-04-26 12:55 55.17572 49.06899 22434 ft 319 kts 211°
2026-04-26 12:55 55.15574 49.05188 23122 ft 323 kts 211°
2026-04-26 12:55 55.13573 49.03475 23791 ft 326 kts 211°
2026-04-26 12:56 55.11529 49.01728 24460 ft 329 kts 211°
2026-04-26 12:56 55.09490 48.99987 25099 ft 332 kts 211°
2026-04-26 12:56 55.07392 48.98198 25727 ft 335 kts 211°
2026-04-26 12:56 55.05306 48.96420 26334 ft 339 kts 212°
2026-04-26 12:57 55.03182 48.94614 26922 ft 342 kts 211°
2026-04-26 12:57 55.01056 48.92807 27492 ft 346 kts 212°
2026-04-26 12:57 54.98886 48.90965 28061 ft 349 kts 211°
2026-04-26 12:58 54.94510 48.87257 29136 ft 356 kts 211°
2026-04-26 12:58 54.92278 48.85370 29678 ft 359 kts 212°
2026-04-26 12:58 54.90029 48.83471 30212 ft 361 kts 211°
2026-04-26 12:58 54.87750 48.81548 30718 ft 365 kts 211°
2026-04-26 12:59 54.85482 48.79639 31200 ft 367 kts 211°
2026-04-26 12:59 54.83187 48.77698 31645 ft 370 kts 211°
2026-04-26 12:59 54.80949 48.75577 31782 ft 369 kts 215°
2026-04-26 12:59 54.78720 48.73357 31813 ft 379 kts 215°
2026-04-26 13:00 54.76375 48.71040 31829 ft 393 kts 215°
2026-04-26 13:00 54.73959 48.68666 31818 ft 408 kts 214°
2026-04-26 13:00 54.71478 48.66234 31824 ft 422 kts 214°
2026-04-26 13:00 54.68885 48.63697 31824 ft 430 kts 214°
2026-04-26 13:01 54.63672 48.58614 31831 ft 430 kts 214°
2026-04-26 13:01 54.58511 48.53610 31817 ft 431 kts 214°
2026-04-26 13:02 54.53316 48.48546 31817 ft 431 kts 214°
2026-04-26 13:02 54.48128 48.43522 31813 ft 430 kts 214°
2026-04-26 13:03 54.42902 48.38479 31813 ft 430 kts 214°
2026-04-26 13:03 54.37711 48.33484 31828 ft 431 kts 214°
2026-04-26 13:04 54.32516 48.28500 31823 ft 430 kts 214°
2026-04-26 13:04 54.27304 48.23515 31828 ft 429 kts 213°
2026-04-26 13:05 54.21883 48.19171 31830 ft 432 kts 209°
2026-04-26 13:05 54.16376 48.14967 31825 ft 432 kts 209°
2026-04-26 13:06 54.10906 48.10802 31831 ft 432 kts 209°
2026-04-26 13:06 54.05428 48.06644 31830 ft 433 kts 209°
2026-04-26 13:07 53.99961 48.02506 31825 ft 432 kts 209°
2026-04-26 13:07 53.94481 47.98370 31814 ft 431 kts 209°
2026-04-26 13:08 53.89035 47.94272 31814 ft 432 kts 209°
2026-04-26 13:08 53.83519 47.90161 31810 ft 434 kts 206°
2026-04-26 13:09 53.77644 47.87477 31816 ft 440 kts 199°
2026-04-26 13:09 53.71721 47.85083 31815 ft 439 kts 199°
2026-04-26 13:10 53.66020 47.81709 31819 ft 433 kts 207°
2026-04-26 13:10 53.60453 47.78008 31819 ft 432 kts 207°
2026-04-26 13:11 53.54871 47.74312 31812 ft 431 kts 207°
2026-04-26 13:11 53.49284 47.70624 31814 ft 432 kts 207°
2026-04-26 13:12 53.43975 47.66183 31823 ft 426 kts 213°
2026-04-26 13:12 53.38767 47.61477 31819 ft 428 kts 213°
2026-04-26 13:13 53.33532 47.56764 31816 ft 428 kts 213°
2026-04-26 13:13 53.28291 47.52061 31820 ft 428 kts 213°
2026-04-26 13:14 53.23056 47.47373 30502 ft 438 kts 213°
2026-04-26 13:14 53.20522 47.45120 31403 ft 384 kts 213°
2026-04-26 13:14 53.18323 47.43159 32637 ft 362 kts 214°
2026-04-26 13:15 53.15985 47.41061 31325 ft 399 kts 213°
2026-04-26 13:15 53.13522 47.38870 30025 ft 410 kts 213°
2026-04-26 13:15 53.11044 47.36669 28943 ft 409 kts 213°
2026-04-26 13:15 53.09388 47.35198 28027 ft 412 kts 213°
2026-04-26 13:16 53.06037 47.32228 26680 ft 405 kts 212°
2026-04-26 13:16 53.03592 47.30065 26216 ft 389 kts 212°
2026-04-26 13:16 53.01272 47.28015 25783 ft 374 kts 212°
2026-04-26 13:16 52.98980 47.26064 25064 ft 375 kts 206°
2026-04-26 13:17 52.93916 47.24542 23993 ft 365 kts 203°
2026-04-26 13:17 52.91517 47.23133 23571 ft 365 kts 205°
2026-04-26 13:18 52.86816 47.20053 22761 ft 363 kts 207°
2026-04-26 13:18 52.84505 47.18499 22352 ft 361 kts 207°
2026-04-26 13:18 52.79897 47.15387 21557 ft 357 kts 207°
2026-04-26 13:19 52.77623 47.13851 21166 ft 356 kts 206°
2026-04-26 13:19 52.75343 47.12314 20776 ft 354 kts 206°
2026-04-26 13:19 52.73055 47.10772 20384 ft 353 kts 206°
2026-04-26 13:19 52.70779 47.09241 19996 ft 352 kts 206°
2026-04-26 13:20 52.68540 47.07736 19613 ft 350 kts 206°
2026-04-26 13:20 52.66291 47.06226 19223 ft 348 kts 206°
2026-04-26 13:20 52.64081 47.04743 18849 ft 347 kts 206°
2026-04-26 13:20 52.61854 47.03251 18467 ft 345 kts 206°
2026-04-26 13:21 52.59654 47.01778 18085 ft 343 kts 206°
2026-04-26 13:21 52.58172 47.00787 17830 ft 341 kts 206°
2026-04-26 13:21 52.55265 46.98846 17343 ft 339 kts 206°
2026-04-26 13:21 52.53104 46.97404 16966 ft 337 kts 206°
2026-04-26 13:22 52.50932 46.95957 16591 ft 334 kts 206°
2026-04-26 13:22 52.48791 46.94532 16223 ft 332 kts 205°
2026-04-26 13:22 52.46669 46.93121 15863 ft 331 kts 205°
2026-04-26 13:22 52.44560 46.91720 15512 ft 328 kts 205°
2026-04-26 13:23 52.42445 46.90316 15137 ft 327 kts 205°
2026-04-26 13:23 52.40342 46.88923 14780 ft 325 kts 205°
2026-04-26 13:23 52.38263 46.87546 14421 ft 322 kts 205°
2026-04-26 13:23 52.36212 46.86189 14071 ft 321 kts 205°
2026-04-26 13:24 52.34146 46.84823 13722 ft 320 kts 205°
2026-04-26 13:24 52.32098 46.83471 13367 ft 318 kts 205°
2026-04-26 13:24 52.30051 46.82121 13014 ft 316 kts 205°
2026-04-26 13:24 52.28036 46.80793 12669 ft 314 kts 205°
2026-04-26 13:25 52.26027 46.79470 12326 ft 312 kts 205°
2026-04-26 13:25 52.24025 46.78154 11975 ft 311 kts 204°
2026-04-26 13:25 52.22015 46.76834 11632 ft 309 kts 204°
2026-04-26 13:25 52.20023 46.75526 11290 ft 307 kts 204°
2026-04-26 13:26 52.18080 46.74253 10957 ft 305 kts 204°
2026-04-26 13:26 52.16099 46.72955 10615 ft 303 kts 204°
2026-04-26 13:26 52.14157 46.71684 10273 ft 295 kts 204°
2026-04-26 13:26 52.12336 46.70495 9936 ft 274 kts 204°
2026-04-26 13:27 52.10610 46.69367 9685 ft 262 kts 204°
2026-04-26 13:27 52.08920 46.68264 9394 ft 261 kts 204°
2026-04-26 13:27 52.07242 46.67168 9106 ft 260 kts 204°
2026-04-26 13:27 52.05573 46.66081 8817 ft 259 kts 204°
2026-04-26 13:28 52.03911 46.64998 8534 ft 258 kts 204°
2026-04-26 13:28 52.02251 46.63918 8244 ft 256 kts 204°
2026-04-26 13:28 52.00612 46.62852 7990 ft 253 kts 204°
2026-04-26 13:28 51.99033 46.61821 8686 ft 257 kts 204°
2026-04-26 13:29 51.97348 46.60691 8306 ft 260 kts 205°
2026-04-26 13:29 51.96238 46.59943 8191 ft 256 kts 206°
2026-04-26 13:29 51.94068 46.58364 7604 ft 261 kts 205°
2026-04-26 13:29 51.92349 46.57347 6735 ft 265 kts 202°
2026-04-26 13:30 51.90674 46.56337 6299 ft 249 kts 202°
2026-04-26 13:30 51.89103 46.55356 6162 ft 242 kts 203°
2026-04-26 13:30 51.87541 46.54365 5912 ft 243 kts 203°
2026-04-26 13:30 51.85964 46.53356 5653 ft 243 kts 203°
2026-04-26 13:31 51.84390 46.52345 5373 ft 242 kts 203°
2026-04-26 13:31 51.82840 46.51348 5101 ft 241 kts 203°
2026-04-26 13:31 51.81289 46.50351 4840 ft 240 kts 203°
2026-04-26 13:31 51.79730 46.49343 4576 ft 238 kts 203°
2026-04-26 13:32 51.78247 46.48360 4307 ft 229 kts 203°
2026-04-26 13:32 51.76804 46.47404 4056 ft 220 kts 203°
2026-04-26 13:32 51.75413 46.46483 3820 ft 211 kts 203°
2026-04-26 13:32 51.74085 46.45604 3593 ft 203 kts 203°
2026-04-26 13:33 51.72807 46.44758 3388 ft 195 kts 203°
2026-04-26 13:33 51.71599 46.43923 3235 ft 183 kts 211°
2026-04-26 13:33 51.70915 46.42285 2989 ft 185 kts 253°
2026-04-26 13:33 51.70839 46.40221 2712 ft 184 kts 260°
2026-04-26 13:34 51.70802 46.38184 2462 ft 179 kts 263°
2026-04-26 13:34 51.70824 46.36197 2187 ft 175 kts 264°
2026-04-26 13:34 51.70861 46.34272 1902 ft 167 kts 263°
2026-04-26 13:34 51.70883 46.33064 1767 ft 153 kts 263°
2026-04-26 13:35 51.70931 46.30947 1445 ft 133 kts 262°
2026-04-26 13:35 51.70966 46.29510 1246 ft 123 kts 262°
2026-04-26 13:35 51.70997 46.28147 1099 ft 122 kts 262°
2026-04-26 13:35 51.71029 46.26766 941 ft 125 kts 264°
2026-04-26 13:36 51.71066 46.25378 799 ft 125 kts 263°
2026-04-26 13:36 51.71104 46.23957 629 ft 126 kts 263°
2026-04-26 13:36 51.71139 46.22561 454 ft 125 kts 263°
2026-04-26 13:36 51.71176 46.21162 282 ft 125 kts 264°
2026-04-26 13:37 51.71207 46.19755 112 ft 125 kts 262°
2026-04-26 13:37 51.71228 46.18368 9 ft 116 kts 273°
2026-04-26 13:37 51.71260 46.17285 9 ft 73 kts 271°
2026-04-26 13:37 51.71272 46.16716 9 ft 26 kts 272°
2026-04-26 13:38 51.71315 46.16542 8 ft 12 kts 356°
2026-04-26 13:38 51.71398 46.16546 8 ft 8 kts
2026-04-26 13:38 51.71402 46.16546 8 ft 0 kts
2026-04-26 13:39 51.71418 46.16546 9 ft 4 kts
2026-04-26 13:39 51.71466 46.16548 8 ft 8 kts
2026-04-26 13:39 51.71522 46.16553 8 ft 8 kts
2026-04-26 13:39 51.71580 46.16557 8 ft 8 kts
2026-04-26 13:40 51.71642 46.16561 8 ft 9 kts
2026-04-26 13:40 51.71675 46.16636 8 ft 9 kts 90°
2026-04-26 13:40 51.71673 46.16740 8 ft 9 kts 93°
2026-04-26 13:40 51.71670 46.16839 8 ft 8 kts 91°
2026-04-26 13:41 51.71676 46.16904 8 ft 4 kts 48°
2026-04-26 13:41 51.71707 46.16909 8 ft 3 kts
2026-04-26 13:41 51.71720 46.16910 8 ft 0 kts